Location: Newark
(42.8481°N, 0.4872°E)
Time: 20:38:31
(UTC+00:00)

Transit 2A - Pass Details

Date: 27 October 2020
Orbit: 595 x 963 km, 66.7° (Epoch: 03 December)

Event Time Altitude Azimuth Distance (km) Brightness Sun altitude
Rises 09:10:09 0° 333° (NNW) 3,480 8.8 24.2°
Reaches altitude 10° 09:12:57 10° 342° (NNW) 2,481 8.2 24.6°
Maximum altitude 09:18:12 37° 48° (NE) 1,224 7.3 25.2°
Drops below altitude 10° 09:22:56 10° 116° (ESE) 2,236 9.7 25.7°
Sets 09:25:21 0° 125° (SE) 3,095 10.3 26.0°
